Tracking 23645 objects as of 21-Sep-2021
HD Live streaming from Space Station
objects crossing your sky now

SAKURA 2B (CS-2B)

Track SAKURA 2B (CS-2B) now!
SAKURA 2B (CS-2B) is classified as:


NORAD ID: 14248
Int'l Code: 1983-081A
Perigee: 36,190.5 km
Apogee: 36,224.0 km
Inclination: 13.6 °
Period: 1,457.3 minutes
Semi major axis: 42578 km
RCS: 8.9693 m2 (large)
Launch date: August 5, 1983
Source: Japan (JPN)
Launch site: TANEGASHIMA SPACE CENTER (TNSTA)
aabbcc
Your satellite tracking list
Your tracking list is empty




NASA's NSSDC Master Catalog

Two Line Element Set (TLE):
1 14248U 83081A   21264.43512465 -.00000208  00000-0  00000-0 0  9995
2 14248  13.6458 337.3109 0003940  66.2354 292.4743  0.98814585106585
Source of the keplerian elements: AFSPC